Location: Davayat
(45.9471°N, 3.1105°E)
Time: 12:48:09
(UTC+00:00)

Okean-O - Visible Passes

Search period start: 20 April 2021 00:00
Search period end: 30 April 2021 00:00
Orbit: 639 x 640 km, 98.2° (Epoch: 19 April)

Date Brightness Start Highest point End Pass type
(mag) Time Alt. Az. Time Alt. Az. Time Alt. Az.
20 Apr 4.6 19:22:16 10° SSW 19:26:11 31° W 19:30:09 10° NNW visible
21 Apr 5.4 19:46:35 10° SW 19:49:42 19° W 19:52:49 10° NW visible
22 Apr 5.8 20:12:11 10° WSW 20:13:16 11° W 20:14:22 10° WNW visible
24 Apr 4.5 19:18:56 10° SSW 19:22:57 33° W 19:26:59 10° NNW visible
25 Apr 5.3 19:43:09 10° SW 19:46:26 20° W 19:49:44 10° NW visible
26 Apr 5.7 20:08:21 10° WSW 20:10:00 12° W 20:11:39 10° WNW visible
28 Apr 4.3 19:15:36 10° SSW 19:19:42 36° W 19:23:49 10° NNW visible
29 Apr 5.2 19:39:44 10° SW 19:43:10 22° W 19:46:37 10° NW visible
